Location: Newark
(43.9494°N, 6.8108°E)
Time: 00:04:25
(UTC+00:00)

A-11 Canister half - Pass Details

Date: 25 October 2019
Orbit: 1514 x 1685 km, 47.2° (Epoch: 19 November)

Event Time Altitude Azimuth Distance (km) Brightness Sun altitude
Rises 08:09:12 0° 291° (WNW) 4,770 11.0 19.6°
Reaches altitude 10° 08:13:21 10° 276° (W) 3,753 10.6 20.2°
Maximum altitude 08:19:37 20° 234° (SW) 2,984 10.5 21.0°
Drops below altitude 10° 08:25:47 10° 191° (S) 3,676 11.6 21.8°
Sets 08:29:50 0° 175° (S) 4,644 12.3 22.4°
